Орджоникидзе

Казахстан     52°13′03″N   61°16′49″E
В апреле 2022 года жителям России запретили посещать сайт meteo.paraplan.net по решению Генеральной прокуратуры. Аудитория сайта уменьшилась в 10 раз. Владельцы сайта не видят смысла в поддержке погодного сервера в таких условиях. Сайт будет закрыт в октябре.
темп.,
°C
ветер,
м/с
пор.,
м/с
влажн.,
%
обл.,
%
осадки,
мм/ч
давл.,
гПа
погр.,
м
3 октября, пн
пн323:00+6ююв3635100 0.0 1031180
02:00+6ююв3534100 0.0 1030184
05:00+5ююв243490 0.0 1030157
08:00+4юв343640 0.0 1031107
11:00+8юв33255 0.0 1031505
14:00+11юв33246 0.0 1030838
17:00+12юв33240 0.0 1029900
20:00+8юв22300 0.0 103119
4 октября, вт
вт423:00+7юв33314 0.0 103223
02:00+5ю22335 0.0 103215
05:00+4ю22355 0.0 103310
08:00+4ююв11355 0.0 103410
11:00+10юв23255 0.0 1035452
14:00+13ююв33200 0.0 1034867
17:00+13ююв23200 0.0 1034854
20:00+9юв33270 0.0 103518
5 октября, ср
ср523:00+7ююв333255 0.0 103539
02:00+6ю333797 0.0 103620
05:00+5ю333990 0.0 103623
08:00+5ю334092 0.0 103746
11:00+10ю4526100 0.0 1035429
14:00+13ю451998 0.0 1034814
17:00+14ю462076 0.0 1032619
20:00+10ю3326100 0.0 103234
6 октября, чт
чт623:00+9ю3428100 0.0 103255
02:00+8ю4729100 0.0 1030106
05:00+8ю4729100 0.0 1029104
08:00+8ю3828100 0.0 1027191
11:00+13ююз6919100 0.0 1026434
14:00+16ююз7915100 0.0 1024844
17:00+15ююз5818100 0.0 1022355
20:00+13ю51121100 0.0 1021275
7 октября, пт
пт723:00+11ююз71146100 0.1 1021416
02:00+12ююз71332100 0.0 1019532
05:00+12ююз61343100 0.0 1017476
08:00+12ююз71240100 0.0 1016659
11:00+13зюз7105358 0.0 1015950
14:00+13з910405 0.0 10151665
17:00+13зсз79405 0.0 10161662
20:00+9сз36565 0.0 1018163